Tracking 27112 objects as of 26-Mar-2023
HD Live streaming from Space Station
objects crossing your sky now

STARLINK-1798

Track STARLINK-1798 now!
10-day predictions
STARLINK-1798 is classified as:


NORAD ID: 46779
Int'l Code: 2020-074AS
Perigee: 553.3 km
Apogee: 555.5 km
Inclination: 53.1 °
Period: 95.6 minutes
Semi major axis: 6925 km
RCS: Unknown
Launch date: October 24, 2020
Source: United States (US)
Launch site: AIR FORCE EASTERN TEST RANGE (AFETR)
Your satellite tracking list
Your tracking list is empty




NASA's NSSDC Master Catalog

Two Line Element Set (TLE):
1 46779U 20074AS  23085.31216861  .00006096  00000-0  42803-3 0  9993
2 46779  53.0526 117.1292 0001577 109.7958 250.3201 15.06376899133844
Source of the keplerian elements: AFSPC